[[{"header":{"parameterUnit":"m.s-1","parameterCategory":1,"la1":30.2991,"la2":30.254,"lo1":-89.0895,"lo2":-89.0444,"dy":0.0017,"dx":0.0017,"nx":28,"ny":28,"refTime":"2025-04-27T09:00:00:Z","depth":0,"parameterNumber":2,"parameterNumberName":"U-component_of_WINDS"},"data":[0,0,0,0,0,0,0,0,0,0,0,0,0,0,0,0,0,0,0,0,0,0,0,0,0,0,0,0,0,0,0,0,0,0,0,0,0,0,0,0,0,0,0,0,0,0,0,0,0,0,0,0,0,0,0,0,0,0,1.9948,1.9948,0,1.9972,1.9972,1.9972,1.9919,1.9918,1.9916,1.9914,1.9939,1.9941,1.9943,0,0,0,0,0,0,0,0,0,0,0,0,0,1.9856,1.9858,1.9948,1.9948,1.9949,1.9972,1.9972,1.9972,1.992,1.9918,1.9916,1.9914,1.9938,1.9941,1.9943,0,0,0,0,0,0,0,0,0,0,0,0,0,1.989,1.9859,1.9948,1.9925,1.9923,1.9972,1.9972,1.9972,1.992,1.9918,1.9915,1.9913,1.9937,1.994,1.9944,2.0015,0,0,1.9954,1.9955,0,0,0,0,0,0,0,0,1.9888,1.9893,1.9928,1.9927,1.9925,1.994,1.9948,1.9987,1.9921,1.9921,1.9914,1.9911,1.9941,1.9944,1.9954,2.0016,2.0017,1.9954,1.9956,1.9958,1.9959,0,0,0,0,0,0,0,1.9886,1.9892,1.9957,1.9929,1.9927,1.9913,1.9915,1.9956,1.9945,1.9921,1.9917,1.9921,1.994,1.9951,1.9954,2.0018,1.9954,1.9957,1.9959,1.996,2.0137,2.0139,0,0,0,0,0,0,1.9886,1.989,1.9957,1.9958,1.99,1.9917,1.9919,1.9938,1.9945,1.9943,1.9923,1.9918,1.9947,1.995,1.9955,2.0036,1.9958,1.9961,1.9963,2.0134,2.0137,2.014,0,0,0,0,0,0,1.9884,1.9893,1.9956,1.9923,1.993,1.9921,1.9943,1.994,1.9951,1.9946,1.9944,1.9936,1.9945,1.995,2.0,2.0037,1.9962,1.9965,2.0131,2.0135,2.0139,2.0202,0,0,0,0,0,0,1.9882,1.9892,1.992,1.9924,1.9932,2.0001,1.9945,1.9942,1.9956,1.9951,1.9958,1.9957,1.9943,1.9995,2.0003,2.004,1.9968,2.0128,2.0133,2.0138,2.0196,2.0208,2.0217,0,0,0,0,0,1.9879,1.9938,1.9922,1.993,1.9966,2.0003,2.0008,1.9991,1.996,1.9987,1.9983,1.9957,2.0032,2.0001,2.0009,2.0048,2.0125,2.0131,2.0137,2.0192,2.0205,2.0217,0,0,0,0,0,0,1.9938,1.9938,1.992,1.9982,1.9993,1.9994,2.0028,2.0006,2.0026,2.002,1.9998,2.0,2.0053,2.0056,2.0021,2.0116,2.0073,2.0081,2.0112,2.0125,2.0135,2.0132,1.9971,0,0,0,0,0,1.9959,1.9989,1.9987,2.0041,2.0048,2.0037,2.0052,2.0038,2.0049,2.0053,2.0054,2.0065,2.0091,2.0108,2.0132,2.0197,2.0197,2.0228,2.0238,2.0247,2.0253,2.0285,2.0297,2.016,2.016,2.016,0,0,2.0001,2.0004,2.0025,2.0053,2.006,2.0091,2.0041,2.0077,2.0099,2.0059,2.0104,2.0106,2.0117,2.0173,2.0199,2.0177,2.0291,2.0254,2.0261,2.0263,2.0292,2.0305,2.0317,2.0164,2.0163,2.0163,0,0,2.0092,2.0099,2.0144,2.0151,2.0162,2.0154,2.0165,2.017,2.0168,2.0214,2.0184,2.021,2.0256,2.0264,2.0274,2.0367,2.0342,2.0376,2.0429,2.046,2.0471,2.048,2.0511,2.0522,2.0383,2.0383,2.0383,0,2.0143,2.0189,2.017,2.0206,2.0218,2.0183,2.0227,2.0236,2.0254,2.0263,2.0239,2.0294,2.0299,2.0356,2.0378,2.0389,2.0399,2.0374,2.0471,2.048,2.0489,2.0517,2.0529,2.0387,2.0387,2.0386,2.0386,0,2.0249,2.0281,2.0316,2.0332,2.0349,2.039,2.0376,2.0395,2.038,2.0374,2.042,2.0425,2.0448,2.0461,2.0447,2.0515,2.0501,2.0475,2.0431,2.0506,2.0532,2.0543,2.0392,2.0391,2.039,2.0389,0,0,2.0378,2.0383,2.0396,2.0402,2.0411,2.0435,2.0473,2.0495,2.051,2.0524,2.0554,2.0593,2.0568,2.0579,2.0565,2.0593,2.0663,2.0563,2.0563,2.0579,2.0736,2.0753,2.0767,2.0648,2.065,2.0651,2.0734,0,2.0466,2.0531,2.0514,2.0578,2.0606,2.0572,2.0605,2.0614,2.061,2.0632,2.0628,2.0654,2.0621,2.0627,2.0653,2.0649,2.0694,2.0643,2.0673,2.0675,2.0669,2.0781,2.08,2.0878,2.0744,2.0746,2.0747,0,2.0578,2.0594,2.066,2.0662,2.0673,2.0703,2.072,2.0743,2.0751,2.0746,2.0758,2.0738,2.0775,2.0733,2.0781,2.0747,2.0759,2.0759,2.0761,2.0761,2.0714,2.0781,2.0902,2.0913,2.0764,2.0763,2.0761,0,2.0661,2.07,2.0744,2.0751,2.0755,2.0776,2.0779,2.0785,2.0798,2.0814,2.0821,2.0842,2.0852,2.0867,2.0853,2.0824,2.0903,2.086,2.0898,2.0898,2.0914,2.0913,2.1036,2.0927,2.0926,2.0926,2.0926,0,2.076,2.0801,2.0781,2.0808,2.0852,2.0833,2.0878,2.0877,2.0882,2.0907,2.0881,2.0905,2.0886,2.0908,2.0897,2.0938,2.0943,2.0939,2.0935,2.094,2.094,2.0945,2.0938,2.0929,2.0929,2.0928,2.0927,0,2.086,2.0849,2.0893,2.0893,2.0894,2.0927,2.0926,2.095,2.0944,2.0976,2.0982,2.0973,2.0997,2.0985,2.1012,2.1004,2.1055,2.1046,2.1052,2.1048,2.1085,2.1081,2.1214,2.1229,2.1113,2.1114,2.1115,0,2.0922,2.0952,2.0955,2.0969,2.0973,2.0998,2.1011,2.0993,2.1007,2.1018,2.1041,2.1063,2.1079,2.1121,2.1115,2.1135,2.1124,2.1169,2.1126,2.1129,2.1121,2.1118,2.112,2.1177,2.1178,2.1179,2.118,0,2.1032,2.1025,2.1044,2.1061,2.1077,2.109,2.1101,2.1115,2.1097,2.1114,2.1139,2.1152,2.1177,2.1199,2.1216,2.1218,2.1195,2.1194,2.1203,2.1207,2.1208,2.1205,2.1072,2.119,2.1189,2.1189,2.1188,2.1188,2.1113,2.1137,2.1142,2.1164,2.117,2.118,2.1202,2.1198,2.1218,2.1237,2.1225,2.1253,2.1259,2.1279,2.1284,2.1305,2.1287,2.1301,2.1304,2.1307,2.1311,2.1207,2.1309,2.1308,2.1308,2.1308,2.1308,0,2.1219,2.122,2.1241,2.1256,2.1273,2.1251,2.1261,2.1276,2.1301,2.1308,2.1325,2.1352,2.1373,2.1369,2.1387,2.1405,2.1395,2.141,2.1407,2.1407,2.1328,2.1316,2.1418,2.1418,2.1417,2.1417,2.1417,2.1417,2.1277,2.1316,2.1309,2.135,2.1351,2.1377,2.1384,2.1393,2.1398,2.143,2.1446,2.1444,2.1446,2.1464,2.1482,2.148,2.1487,2.1505,2.15,2.1424,2.1413,2.1403,2.1392,2.1508,2.1508,2.1577,2.1578,2.1578]},{"header":{"parameterUnit":"m.s-1","parameterCategory":1,"la1":30.2991,"la2":30.254,"lo1":-89.0895,"lo2":-89.0444,"dy":0.0017,"dx":0.0017,"nx":28,"ny":28,"refTime":"2025-04-27T09:00:00:Z","depth":0,"parameterNumber":3,"parameterNumberName":"V-component_of_WINDS"},"data":[0,0,0,0,0,0,0,0,0,0,0,0,0,0,0,0,0,0,0,0,0,0,0,0,0,0,0,0,0,0,0,0,0,0,0,0,0,0,0,0,0,0,0,0,0,0,0,0,0,0,0,0,0,0,0,0,0,0,1.8153,1.8154,0,1.8187,1.8187,1.8187,1.8173,1.8173,1.8172,1.8171,1.8202,1.8204,1.8205,0,0,0,0,0,0,0,0,0,0,0,0,0,1.8074,1.8075,1.8153,1.8154,1.8154,1.8187,1.8187,1.8187,1.8174,1.8173,1.8172,1.8171,1.8202,1.8204,1.8206,0,0,0,0,0,0,0,0,0,0,0,0,0,1.8108,1.8076,1.8153,1.8151,1.8151,1.8186,1.8187,1.8188,1.8174,1.8173,1.8171,1.817,1.8201,1.8204,1.8206,1.8244,0,0,1.8213,1.8214,0,0,0,0,0,0,0,0,1.8106,1.8111,1.8151,1.8151,1.8152,1.8175,1.817,1.8206,1.8174,1.8165,1.8171,1.817,1.8194,1.8197,1.8206,1.8245,1.8247,1.8213,1.8215,1.8216,1.8216,0,0,0,0,0,0,0,1.8104,1.8109,1.8166,1.8152,1.8152,1.8147,1.8151,1.8177,1.8186,1.8166,1.8165,1.8169,1.8194,1.8203,1.8206,1.8247,1.8213,1.8215,1.8217,1.8218,1.8318,1.8319,0,0,0,0,0,0,1.8102,1.8107,1.8165,1.8167,1.8126,1.815,1.8154,1.8168,1.8185,1.8187,1.817,1.8169,1.82,1.8203,1.8207,1.8251,1.8216,1.8218,1.8219,1.8317,1.8318,1.8319,0,0,0,0,0,0,1.81,1.8107,1.8164,1.8137,1.8144,1.8152,1.8169,1.817,1.8179,1.8189,1.819,1.8179,1.8199,1.8204,1.8235,1.8252,1.8219,1.8221,1.8315,1.8317,1.8319,1.8341,0,0,0,0,0,0,1.8098,1.8107,1.8122,1.8138,1.8146,1.8192,1.817,1.8171,1.8184,1.8182,1.8197,1.8198,1.8199,1.8231,1.8237,1.8255,1.8223,1.8314,1.8316,1.8318,1.8339,1.8344,1.8348,0,0,0,0,0,1.8095,1.8127,1.8123,1.813,1.8165,1.8193,1.8198,1.8198,1.8185,1.82,1.8206,1.8198,1.825,1.8235,1.8241,1.826,1.8312,1.8315,1.8318,1.8337,1.8343,1.8348,0,0,0,0,0,0,1.8112,1.8129,1.8125,1.8163,1.8177,1.8191,1.821,1.8205,1.8222,1.8219,1.8218,1.8222,1.8253,1.826,1.8242,1.8297,1.8279,1.8283,1.8291,1.8297,1.8301,1.8298,1.8225,0,0,0,0,0,1.8121,1.8143,1.8156,1.8188,1.8195,1.8201,1.8214,1.8213,1.8227,1.8232,1.8241,1.8254,1.8273,1.8285,1.8303,1.834,1.8342,1.8356,1.8361,1.8364,1.8367,1.8385,1.8391,1.8329,1.8329,1.8329,0,0,1.8138,1.815,1.8164,1.8192,1.8203,1.8224,1.8206,1.8231,1.8246,1.8236,1.8265,1.8272,1.8286,1.8319,1.8334,1.8326,1.8385,1.8368,1.8371,1.8372,1.8389,1.8395,1.84,1.8331,1.833,1.833,0,0,1.818,1.8192,1.822,1.8231,1.8247,1.8251,1.8258,1.8272,1.8276,1.8306,1.8298,1.8316,1.835,1.836,1.8369,1.8414,1.8407,1.842,1.8443,1.846,1.8465,1.8469,1.8484,1.8489,1.8424,1.8424,1.8424,0,1.8199,1.8233,1.8234,1.8259,1.827,1.8263,1.8289,1.83,1.8321,1.8329,1.8319,1.836,1.8369,1.8404,1.8415,1.8423,1.8429,1.8418,1.8465,1.8469,1.8473,1.8487,1.8492,1.8425,1.8425,1.8425,1.8425,0,1.8255,1.8278,1.8298,1.8319,1.8333,1.8359,1.8362,1.8376,1.8374,1.8378,1.8407,1.8418,1.8438,1.8446,1.8444,1.848,1.8474,1.8465,1.8447,1.848,1.8493,1.8498,1.8427,1.8427,1.8426,1.8426,0,0,1.8309,1.833,1.8337,1.8346,1.8363,1.8381,1.8405,1.8425,1.8436,1.8451,1.847,1.8498,1.8489,1.85,1.8499,1.8514,1.8547,1.8503,1.8503,1.8509,1.8586,1.8592,1.8598,1.8543,1.8544,1.8545,1.8584,0,1.8351,1.8395,1.8396,1.8435,1.8456,1.8448,1.8469,1.8481,1.8486,1.8502,1.8507,1.8526,1.8514,1.852,1.8535,1.854,1.8562,1.8537,1.8559,1.856,1.8554,1.8605,1.8612,1.8648,1.8589,1.859,1.8591,0,1.8406,1.8423,1.8465,1.8478,1.8486,1.8505,1.8523,1.854,1.8553,1.8554,1.8566,1.8563,1.8586,1.8568,1.8599,1.8582,1.8591,1.8594,1.8596,1.8597,1.8576,1.8606,1.866,1.8665,1.8599,1.8598,1.8597,0,1.8439,1.8473,1.8501,1.8509,1.8526,1.8539,1.8546,1.8558,1.8569,1.8584,1.8591,1.8609,1.8618,1.8631,1.8631,1.8619,1.8662,1.8645,1.8663,1.8663,1.8671,1.8671,1.8726,1.868,1.868,1.8679,1.8679,0,1.8486,1.8511,1.8516,1.8534,1.8561,1.8562,1.8589,1.8595,1.8605,1.8622,1.8617,1.8633,1.8634,1.865,1.8651,1.8675,1.868,1.8681,1.868,1.8681,1.868,1.8685,1.8682,1.8681,1.8681,1.868,1.868,0,1.8527,1.8532,1.8562,1.8575,1.8579,1.8599,1.8609,1.8625,1.8629,1.8651,1.8656,1.8661,1.868,1.8682,1.8704,1.8704,1.8734,1.8731,1.8729,1.8728,1.8746,1.8744,1.8806,1.8814,1.8763,1.8764,1.8764,0,1.8556,1.8575,1.859,1.8602,1.861,1.8629,1.864,1.8641,1.8653,1.8669,1.8682,1.8701,1.8715,1.8745,1.875,1.8767,1.8764,1.8784,1.8766,1.8765,1.8762,1.876,1.8761,1.8787,1.8788,1.8788,1.8789,0,1.8605,1.8606,1.8624,1.8642,1.8656,1.867,1.8683,1.8692,1.8695,1.8708,1.8728,1.8739,1.8761,1.8779,1.8794,1.88,1.8794,1.8795,1.88,1.8799,1.8797,1.8797,1.8737,1.8793,1.8793,1.8792,1.8792,1.8792,1.864,1.8656,1.8669,1.8688,1.8698,1.871,1.8725,1.8731,1.8747,1.8766,1.8765,1.8786,1.8797,1.8818,1.8825,1.8841,1.8834,1.8841,1.8842,1.8844,1.8845,1.8796,1.8844,1.8844,1.8843,1.8843,1.8843,0,1.8688,1.8696,1.8713,1.8732,1.8746,1.8741,1.8754,1.8767,1.8785,1.8797,1.8811,1.8832,1.8849,1.8856,1.8872,1.8883,1.888,1.8887,1.8885,1.8887,1.8851,1.8845,1.8889,1.8889,1.8889,1.8889,1.8889,1.8888,1.8714,1.8741,1.8743,1.8774,1.8781,1.8802,1.881,1.8821,1.883,1.8854,1.8868,1.8873,1.8882,1.8898,1.8913,1.8914,1.892,1.8927,1.8927,1.8894,1.8889,1.8885,1.8879,1.8929,1.8929,1.8961,1.8962,1.8962]}]]